P/2011 Y2 ( Boattini )

Japanese version
Home page
Updated on March 18, 2012

---------------------------------------------------------------------

* Profile

Discovery Date December 24, 2011
Magnitude 19.4 mag
Discoverer A. Boattini (Mount Lemmon)

* Pictures

* Orbital Elements

Epoch 2012 Mar. 14.0 TT = JDT 2456000.5
T 2012 Mar. 21.69115 TT                                 MPC
q   1.7871853            (2000.0)            P               Q
n   0.06351381     Peri.  131.19243     +0.14941804     -0.98513648
a   6.2214354      Node   310.00930     +0.87084626     +0.17170146
e   0.7127375      Incl.    6.35171     +0.46829590     -0.00497210
P  15.5
From 89 observations 2011 Sept. 4-2012 Mar. 16, mean residual 0".4.

* Magnitudes Graph

        m1 = 15.0 + 5 log d + 10.0 log r

---------------------------------------------------------------------

The orbital elements are published on M.P.E.C. 2012-F11.
The magnitudes graphs are made with Comet for Windows.

---------------------------------------------------------------------

Copyright(C) Seiichi Yoshida (comet@aerith.net). All rights reserved.